Find Kosmos-796

NORAD ID: 8612 Int'l Des: 1976-008 Owner: GUKOSR Country: SU operational
LEOCIRCULAR

Current View

Loading 3D Globe...

About Kosmos-796

Description loading...

Upcoming Passes

Passes for default location (London). Set your location on the main map for personalized predictions.

Altitude History

Loading altitude history...

Two-Line Element Set

1 8612U 76008F 26151.22926310 -.00000007 00000-0 58738-4 0 9991
2 8612 74.0556 335.3686 0027933 238.4046 235.6972 12.43168325284431
Epoch: May 31, 2026 • Age: 9 hours

Current Status

Altitude 1500.5 km
Velocity 7.12 km/s
Sub-Earth Point -73.68°S, 131.35°E
Type other

Most Searched